Weather History for PABI - October, 2012

Change the Weather History Date:

Sunday, October 21, 2012

  Actual Average Record
Temperature  
Mean Temperature 11 °F -  
Max Temperature 19 °F 24 °F 50 °F (2002)
Min Temperature 3 °F 11 °F -11 °F (1996)
Degree Days  
Heating Degree Days 54    
Moisture  
Dew Point 8 °F    
Average Humidity 80    
Maximum Humidity 92    
Minimum Humidity 56    
Precipitation  
Precipitation 0.00 in - - ()
Sea Level Pressure  
Sea Level Pressure 30.57 in    
Wind  
Wind Speed 9 mph (ESE)    
Max Wind Speed 22 mph    
Max Gust Speed 30 mph    
Visibility 10 miles    
Events      
Averages and records for this station are not official NWS values.
T = Trace of Precipitation, MM = Missing Value Source: NWS Daily Summary

Daily Weather History Graph

Daily Weather History Graph

Search for Another Location

Airport or City:

Trip Planner

Search our weather history database for the weather conditions in past years. The results will help you decide how hot, cold, wet, or windy it might be!

Date:

Astronomy

Oct. 21, 2012 Rise Set
Actual Time 8:53 AM AKDT 6:00 PM AKDT
Civil Twilight 8:03 AM AKDT 6:50 PM AKDT
Nautical Twilight 7:07 AM AKDT 7:45 PM AKDT
Astronomical Twilight 6:12 AM AKDT 8:40 PM AKDT
Moon 4:01 PM AKDT (10/21) 11:30 PM AKDT (10/21)
Length of Visible Light 10h 47m
Length of Day
9h 07m
Waxing Crescent, 47% of the Moon is Illuminated
Oct 21
Waxing Crescent
Oct 21
First Quarter
Oct 29
Full
Nov 6
Last Quarter
Nov 13
New

Hourly Weather History & Observations

Time (AKDT) Temp. Windchill Dew Point Humidity Pressure Visibility Wind Dir Wind Speed Gust Speed Precip Events Conditions
12:53 AM 18.0 °F 9.8 °F 12.9 °F 81% 30.66 in 10.0 mi ESE 5.8 mph - N/A   Overcast
1:53 AM 17.1 °F 6.6 °F 12.9 °F 84% 30.66 in 10.0 mi East 8.1 mph - N/A   Overcast
2:23 AM 15.8 °F 6.1 °F 12.2 °F 86% 30.55 in 10.0 mi East 6.9 mph - N/A   Overcast
2:53 AM 16.0 °F 6.3 °F 12.9 °F 88% 30.66 in 10.0 mi East 6.9 mph - N/A   Overcast
3:53 AM 16.0 °F 5.3 °F 12.9 °F 88% 30.66 in 10.0 mi East 8.1 mph - N/A   Overcast
4:53 AM 15.1 °F 3.3 °F 12.9 °F 91% 30.66 in 10.0 mi ESE 9.2 mph - N/A   Overcast
5:53 AM 14.0 °F 3.9 °F 12.0 °F 92% 30.66 in 10.0 mi East 6.9 mph - N/A   Overcast
6:53 AM 12.0 °F -0.4 °F 10.0 °F 92% 30.66 in 10.0 mi ESE 9.2 mph - N/A   Overcast
7:53 AM 9.0 °F -2.2 °F 7.0 °F 92% 30.65 in 10.0 mi East 6.9 mph - N/A   Scattered Clouds
8:16 AM 8.6 °F -2.6 °F 6.8 °F 92% 30.52 in 10.0 mi ESE 6.9 mph - N/A   Mostly Cloudy
8:53 AM 6.1 °F -2.8 °F 3.9 °F 91% 30.64 in 10.0 mi SE 4.6 mph - N/A   Mostly Cloudy
9:16 AM 5.0 °F -2.1 °F 1.4 °F 85% 30.51 in 10.0 mi SSE 3.5 mph - N/A   Mostly Cloudy
9:53 AM 3.9 °F - 1.9 °F 91% 30.64 in 6.0 mi Calm Calm - N/A   Mostly Cloudy
10:22 AM 3.2 °F -4.2 °F 1.4 °F 92% 30.50 in 10.0 mi East 3.5 mph - N/A   Partly Cloudy
10:53 AM 6.1 °F -2.8 °F 1.9 °F 83% 30.62 in 10.0 mi East 4.6 mph - N/A   Partly Cloudy
11:53 AM 8.1 °F 1.4 °F 5.0 °F 87% 30.60 in 10.0 mi ESE 3.5 mph - N/A   Partly Cloudy
12:53 PM 14.0 °F 3.9 °F 9.0 °F 80% 30.57 in 10.0 mi ESE 6.9 mph - N/A   Partly Cloudy
1:53 PM 18.0 °F 2.2 °F 10.0 °F 71% 30.54 in 10.0 mi ESE 18.4 mph 26.5 mph N/A   Scattered Clouds
2:53 PM 19.0 °F 2.4 °F 10.0 °F 68% 30.53 in 10.0 mi ESE 21.9 mph 29.9 mph N/A   Partly Cloudy
3:53 PM 19.0 °F 2.4 °F 10.0 °F 68% 30.52 in 10.0 mi ESE 21.9 mph 27.6 mph N/A   Partly Cloudy
4:53 PM 18.0 °F 2.6 °F 10.0 °F 71% 30.51 in 10.0 mi ESE 17.3 mph - N/A   Scattered Clouds
5:53 PM 17.1 °F 3.0 °F 9.0 °F 71% 30.51 in 10.0 mi ESE 13.8 mph 18.4 mph N/A   Scattered Clouds
6:53 PM 16.0 °F -1.7 °F 9.0 °F 74% 30.50 in 10.0 mi ESE 21.9 mph 28.8 mph N/A   Scattered Clouds
7:53 PM 16.0 °F -0.9 °F 9.0 °F 74% 30.49 in 10.0 mi ESE 19.6 mph - N/A   Scattered Clouds
8:53 PM 15.1 °F -1.1 °F 8.1 °F 74% 30.49 in 10.0 mi ESE 17.3 mph 25.3 mph N/A   Scattered Clouds
9:53 PM 15.1 °F -2.0 °F 8.1 °F 74% 30.48 in 10.0 mi East 19.6 mph - N/A   Clear
10:53 PM 14.0 °F -2.5 °F 7.0 °F 74% 30.47 in 10.0 mi ESE 17.3 mph 24.2 mph N/A   Clear
11:53 PM 14.0 °F -2.0 °F 7.0 °F 74% 30.47 in 10.0 mi ESE 16.1 mph - N/A   Clear